User: anonymous   Login
Location: Unspecified
(0.0000°N, 0.0000°E)
Time: 03:19:18
(UTC+00:00)
Language:

STARLINK-3069 - Orbit

View from above orbital plane
View from above orbital plane
View from above satellite
View from above satellite

Ground track
Ground track

The orbit is defined by the following mean orbital elements,

1 49176U          26145.47911661 +.00000000 +00000-0 -19136-4 0 00008
2 49176  70.0008  60.8399 0002742 261.7733  98.3115 14.98329267    01
Epoch (UTC): 25 May 2026 11:29:55
Eccentricity: 0.0002742
inclination: 70.0008°
perigee height: 570 km
apogee height: 574 km
right ascension of ascending node: 60.8399°
argument of perigee: 261.7733°
revolutions per day: 14.98329267
mean anomaly at epoch: 98.3115°

The dashed part of the orbit path shows where the satellite is in the earth's shadow,  

DLR